KFCH

Details ICAO KFCH
Name Fresno Chandler Executive
Region United States
Timezone America/Los_Angeles (UTC-7.0)
Plans Departing 18
Arriving 8
Stats Elevation 277 ft / 84 m (AMSL)
Location 36.732391° -119.820212°
Runways 3
Magnetic Variation 12.800° E
Sunrise 2018-05-25 12:46:27 UTC / 2018-05-25 05:46:27 Local
Sunset 2018-05-26 03:08:55 UTC / 2018-05-25 20:08:55 Local
Advertisement - Login to hide

Runways

ID Width Length Bearing (true) Bearing (mag) Surface Threshold Offset Overrun Length
12 75 ft / 23 m 3,626 ft / 1,105 m 125.78° 112.98° Asphalt 417 ft / 127 m 148 ft / 45 m
12L 70 ft / 21 m 2,588 ft / 789 m 125.80° 113.00° Concrete 0 ft / 0 m 0 ft / 0 m
12R 75 ft / 23 m 3,200 ft / 975 m 125.77° 112.97° Asphalt 240 ft / 73 m 0 ft / 0 m
30 75 ft / 23 m 3,626 ft / 1,105 m 305.79° 292.99° Asphalt 538 ft / 164 m 0 ft / 0 m
30L 75 ft / 23 m 3,200 ft / 975 m 305.77° 292.97° Asphalt 299 ft / 91 m 0 ft / 0 m
30R 70 ft / 21 m 2,588 ft / 789 m 305.80° 293.00° Concrete 0 ft / 0 m 0 ft / 0 m

Map

Weather


0- 5 10 15 20 25 30 35+ Temperature / ° C

Clouds and Precipitation
Forecast for 2018-05-25 18:00 UTC. Updated 8 minutes ago

Ground ~20,000 ft ~40,000 ft Winds

METAR

KFCH 251715Z AUTO 01008KT 10SM OVC036 15/10 A3011 RMK A01

TAF

Not found

Frequencies

Recorded 135.22 MHz AWOS
Unicom 123.00 MHz Chandler CTAF
Warning: Do not use this data for real-world aviation or navigation. No guarantee of current accuracy is given.